Hourly Data Report for December 10, 2018

TORONTO CITY
ONTARIO
Current Station Operator: ECCC - MSC

43°40'00.000" N
79°24'00.000" W
112.50 m
6158355
71508
XTO

Download Data

Hourly Data (December 2018)
Hourly Data Report for December 10, 2018
TIME
LST
Temp Definition
°C
Dew Point Definition
°C
Rel Hum Definition
%
Precip. Amount Definition
mm

Wind Dir Definition
10's deg

Wind Spd Definition
km/h
Visibility Definition
km
Stn Press Definition
kPa
Hmdx Definition


Wind Chill Definition


Weather Definition


00:00 0.1 -5.3 67 0.0 LegendMM LegendMM   100.85     LegendNANA
01:00 0.0 -5.3 67 0.0 LegendMM LegendMM   100.79     LegendNANA
02:00 0.0 -5.0 69 0.0 LegendMM LegendMM   100.77     LegendNANA
03:00 0.2 -4.6 70 0.0 LegendMM LegendMM   100.79     LegendNANA
04:00 0.3 -4.3 72 0.0 LegendMM LegendMM   100.75     LegendNANA
05:00 0.4 -4.0 72 0.0 LegendMM LegendMM   100.75     LegendNANA
06:00 0.6 -3.8 72 0.0 LegendMM LegendMM   100.76     LegendNANA
07:00 0.7 -3.7 72 0.0 LegendMM LegendMM   100.81     LegendNANA
08:00 0.8 -3.6 72 0.0 LegendMM LegendMM   100.83     LegendNANA
09:00 0.9 -3.7 71 0.0 LegendMM LegendMM   100.88     LegendNANA
10:00 1.4 -3.8 69 0.0 LegendMM LegendMM   100.92     LegendNANA
11:00 1.7 -3.7 68 0.0 LegendMM LegendMM   100.91     LegendNANA
12:00 1.8 -5.3 59 0.0 LegendMM LegendMM   100.87     LegendNANA
13:00 1.7 -5.6 58 0.0 LegendMM LegendMM   100.83     LegendNANA
14:00 1.9 -5.3 59 0.0 LegendMM LegendMM   100.78     LegendNANA
15:00 1.7 -4.1 65 0.0 LegendMM LegendMM   100.75     LegendNANA
16:00 1.6 -3.4 70 0.0 LegendMM LegendMM   100.74     LegendNANA
17:00 1.3 -2.4 76 0.0 LegendMM LegendMM   100.72     LegendNANA
18:00 1.4 -3.1 72 0.0 LegendMM LegendMM   100.72     LegendNANA
19:00 1.4 -4.0 67 0.0 LegendMM LegendMM   100.69     LegendNANA
20:00 1.4 -5.7 59 0.0 LegendMM LegendMM   100.67     LegendNANA
21:00 1.2 -5.5 61 0.0 LegendMM LegendMM   100.61     LegendNANA
22:00 0.9 -5.9 60 0.0 LegendMM LegendMM   100.58     LegendNANA
23:00 0.6 -5.7 63 0.0 LegendMM LegendMM   100.54     LegendNANA

Notes on Data Quality.

Legend

  • E = Estimated
  • M = Missing
  • NA = Not Available*
  • [empty] = Indicates an unobserved value
Date modified: